FW1746 Weather Reports


Display with metric or nautical units.
time (UTC)temp
F
wind
direction
speed
MPH
gust
MPH
rain 1hr
in
rain 24hr
in
rain mn
in
humidity
%
barometer
mb
20260508081610 51 136 1.0 3.0 0.00 0.00 0.00 79 1022.9
20260508080054 50 219 1.0 3.0 0.00 0.00 0.00 80 1022.8
20260508074554 49 275 0.0 2.0 0.00 0.00 0.00 84 1022.8
20260508073052 48 275 1.0 3.0 0.00 0.00 0.00 87 1022.6
20260508071549 47 277 1.0 2.0 0.00 0.00 0.00 89 1022.5
20260508070054 45 253 1.0 3.0 0.00 0.00 0.00 90 1022.5
20260508064550 44 253 2.0 3.0 0.00 0.00 0.00 92 1022.2
20260508063053 44 253 1.0 4.0 0.00 0.00 0.00 93 1022.1
20260508061548 43 244 2.0 3.0 0.00 0.00 0.00 95 1022.0
20260508060042 41 271 0.0 2.0 0.00 0.00 0.00 96 1021.8
20260508054555 40 249 1.0 2.0 0.00 0.00 0.00 96 1021.8
20260508053040 39 250 0.0 1.0 0.00 0.00 0.00 96 1021.7
20260508051537 38 250 0.0 1.0 0.00 0.00 0.00 96 1021.6
20260508050043 37 249 0.0 2.0 0.00 0.00 0.00 96 1021.5
20260508044554 37 250 0.0 2.0 0.00 0.00 0.00 95 1021.4
20260508043042 37 250 0.0 2.0 0.00 0.00 0.00 95 1021.3
20260508041549 37 247 2.0 4.0 0.00 0.00 0.00 95 1021.2
20260508040039 36 213 0.0 1.0 0.00 0.00 0.00 94 1021.1
20260508034539 36 211 0.0 1.0 0.00 0.00 0.00 94 1020.9
20260508033037 36 211 0.0 1.0 0.00 0.00 0.00 94 1021.0
20260508031530 36 211 0.0 2.0 0.00 0.00 0.00 94 1020.7
20260508030038 37 211 0.0 1.0 0.00 0.00 0.00 94 1020.7
20260508024528 37 211 0.0 2.0 0.00 0.00 0.00 94 1020.5
20260508023038 37 210 0.0 4.0 0.00 0.00 0.00 94 1020.5
20260508021525 37 211 0.0 0.0 0.00 0.00 0.00 93 1020.4
20260508020022 37 211 0.0 1.0 0.00 0.00 0.00 94 1020.3
20260508014520 38 211 0.0 2.0 0.00 0.00 0.00 93 1020.2
20260508013017 38 211 0.0 1.0 0.00 0.00 0.00 93 1020.0
20260508011517 38 210 0.0 1.0 0.00 0.00 0.00 93 1019.9
20260508010027 39 210 1.0 4.0 0.00 0.00 0.00 93 1019.8
20260508004521 39 209 1.0 3.0 0.00 0.00 0.00 93 1019.9
20260508003018 39 209 1.0 3.0 0.00 0.00 0.00 92 1019.8
20260508001514 39 209 1.0 2.0 0.00 0.00 0.00 92 1019.7
20260508000010 39 207 1.0 3.0 0.00 0.00 0.00 92 1019.7
20260507234509 40 209 2.0 4.0 0.00 0.00 0.00 93 1019.7
20260507233008 40 205 2.0 4.0 0.00 0.00 0.00 92 1019.7
20260507231506 40 205 1.0 4.0 0.00 0.00 0.00 92 1019.7
20260507230009 40 221 2.0 3.0 0.00 0.00 0.00 91 1019.7
20260507224510 40 221 1.0 3.0 0.00 0.00 0.00 91 1019.7
20260507223007 40 206 1.0 3.0 0.00 0.00 0.00 91 1019.8
20260507221505 40 221 2.0 3.0 0.00 0.00 0.00 91 1019.8
20260507220055 40 188 2.0 4.0 0.00 0.00 0.00 90 1019.8
20260507214554 41 198 2.0 4.0 0.00 0.00 0.00 89 1019.8
20260507213052 41 169 1.0 3.0 0.00 0.00 0.00 89 1019.7
20260507211551 42 170 2.0 3.0 0.00 0.00 0.00 89 1019.7
20260507210119 42 155 1.0 2.0 0.00 0.00 0.00 88 1019.7
20260507204600 43 135 1.0 2.0 0.00 0.00 0.00 87 1019.5
20260507203057 43 137 1.0 2.0 0.00 0.00 0.00 86 1019.5
20260507201549 44 136 1.0 3.0 0.00 0.00 0.00 85 1019.3
20260507200052 45 136 1.0 3.0 0.00 0.00 0.00 84 1019.3
20260507194536 45 136 0.0 2.0 0.00 0.00 0.00 83 1019.2
20260507193100 46 137 0.0 1.0 0.00 0.00 0.00 82 1019.0
20260507191530 47 137 0.0 1.0 0.00 0.00 0.00 80 1018.9
20260507190034 48 136 0.0 0.0 0.00 0.00 0.00 79 1018.9
20260507184528 48 137 0.0 2.0 0.00 0.00 0.00 79 1018.8
20260507183036 49 136 0.0 3.0 0.00 0.00 0.00 79 1018.8
20260507181525 49 136 1.0 5.0 0.00 0.00 0.00 78 1018.7
20260507180019 50 133 1.0 4.0 0.00 0.00 0.00 77 1018.6
20260507174519 50 134 3.0 5.0 0.00 0.00 0.00 76 1018.6
20260507173019 51 138 3.0 5.0 0.00 0.00 0.00 73 1018.5
20260507171510 52 130 3.0 5.0 0.00 0.00 0.00 71 1018.4
20260507170010 52 137 2.0 5.0 0.00 0.00 0.00 70 1018.3
20260507164508 52 143 2.0 7.0 0.00 0.00 0.00 71 1018.3
20260507163005 53 128 4.0 8.0 0.00 0.00 0.00 70 1018.3
20260507161504 53 141 6.0 9.0 0.00 0.00 0.00 67 1018.4
20260507160004 55 130 5.0 9.0 0.00 0.00 0.00 63 1018.4
20260507154502 56 68 2.0 6.0 0.00 0.00 0.00 62 1018.3
20260507153002 56 68 3.0 5.0 0.00 0.00 0.00 61 1018.3
20260507151600 57 51 4.0 9.0 0.00 0.00 0.00 60 1018.3
20260507150100 57 53 3.0 6.0 0.00 0.00 0.00 59 1018.4
20260507144605 57 58 3.0 7.0 0.00 0.00 0.00 60 1018.3
20260507143101 57 59 3.0 5.0 0.00 0.00 0.00 59 1018.4
20260507141618 56 155 1.0 7.0 0.00 0.00 0.00 60 1018.4
20260507140100 56 88 4.0 8.0 0.00 0.00 0.00 60 1018.4
20260507134601 56 152 0.0 8.0 0.00 0.00 0.00 60 1018.4
20260507133050 56 75 1.0 8.0 0.00 0.00 0.00 59 1018.5
20260507131550 57 74 1.0 6.0 0.00 0.00 0.00 55 1018.4
20260507130056 56 61 4.0 10.0 0.00 0.00 0.00 57 1018.4
20260507124554 57 48 4.0 10.0 0.00 0.00 0.00 57 1018.4
20260507123054 56 79 4.0 9.0 0.00 0.00 0.00 56 1018.3
20260507121551 56 51 5.0 9.0 0.00 0.00 0.00 56 1018.3
20260507120038 56 57 4.0 7.0 0.00 0.00 0.00 55 1018.3
20260507114536 55 57 5.0 9.0 0.00 0.00 0.00 56 1018.2
20260507113034 55 94 5.0 10.0 0.00 0.00 0.00 58 1018.3
20260507111537 55 55 6.0 12.0 0.00 0.00 0.00 58 1018.3
20260507110035 54 54 7.0 11.0 0.00 0.00 0.00 57 1018.3
20260507104534 54 60 6.0 12.0 0.00 0.00 0.00 57 1018.2
20260507103035 53 86 6.0 11.0 0.00 0.00 0.00 59 1018.1
20260507101532 53 55 8.0 13.0 0.00 0.00 0.00 59 1018.1
20260507100047 52 42 7.0 13.0 0.00 0.00 0.00 58 1017.9
20260507094547 52 62 10.0 14.0 0.00 0.00 0.00 57 1017.8
20260507093046 51 70 11.0 14.0 0.00 0.00 0.00 58 1017.8
20260507091546 51 72 10.0 15.0 0.00 0.00 0.00 56 1017.7
20260507090045 51 61 10.0 14.0 0.00 0.00 0.00 54 1017.7
20260507084546 51 71 10.0 14.0 0.00 0.00 0.00 52 1017.7
20260507083047 51 64 10.0 14.0 0.00 0.00 0.00 49 1017.6